Location: Newark
(52.9447°N, 5.7817°E)
Time: 00:50:15
(UTC+00:00)

ISS - Pass Details

Date: 26 September 2020
Orbit: 417 x 420 km, 51.6° (Epoch: 27 October)

Event Time Altitude Azimuth Distance (km) Brightness Sun altitude
Rises 18:12:41 0° 257° (WSW) 2,363 1.6 -8.0°
Reaches altitude 10° 18:14:47 10° 255° (WSW) 1,501 0.3 -8.3°
Maximum altitude 18:18:07 67° 173° (S) 460 -3.7 -8.8°
Enters shadow 18:21:02 13° 91° (E) 1,323 -1.9 -9.3°
